Time,TemperatureF,DewpointF,PressureIn,WindDirection,WindDirectionDegrees,WindSpeedMPH,WindSpeedGustMPH,Humidity,HourlyPrecipIn,Conditions,Clouds,dailyrainin,SolarRadiationWatts/m^2,SoftwareType,DateUTC
2013-04-11 00:22:00,39.0,39.0,-100.00,ENE,65,8.0,11.0,99,0.02,,,1.12,0.000000,,2013-04-11 05:22:00,
2013-04-11 00:32:00,39.0,39.0,-100.00,ENE,65,8.0,11.0,99,0.02,,,1.12,0.000000,,2013-04-11 05:32:00,
2013-04-11 00:42:00,39.0,39.0,-100.00,ENE,65,8.0,11.0,99,0.02,,,1.12,0.000000,,2013-04-11 05:42:00,
2013-04-11 01:12:00,39.0,39.0,-100.00,ENE,78,4.0,11.0,100,0.06,,,1.16,0.000000,,2013-04-11 06:12:00,
2013-04-11 01:22:00,39.0,39.0,-100.00,ENE,78,4.0,11.0,100,0.06,,,1.16,0.000000,,2013-04-11 06:22:00,
2013-04-11 01:32:00,39.0,39.0,-100.00,ENE,78,4.0,11.0,100,0.06,,,1.16,0.000000,,2013-04-11 06:32:00,
2013-04-11 01:42:00,39.0,39.0,-100.00,ENE,78,4.0,11.0,100,0.06,,,1.16,0.000000,,2013-04-11 06:42:00,
2013-04-11 02:12:00,39.0,39.0,-100.00,ENE,69,7.0,8.0,100,0.04,,,1.20,0.000000,,2013-04-11 07:12:00,
2013-04-11 02:22:00,39.0,39.0,-100.00,ENE,69,7.0,8.0,100,0.04,,,1.20,0.000000,,2013-04-11 07:22:00,
2013-04-11 02:32:00,39.0,39.0,-100.00,ENE,69,7.0,8.0,100,0.04,,,1.20,0.000000,,2013-04-11 07:32:00,
2013-04-11 02:42:00,39.0,39.0,-100.00,ENE,69,7.0,8.0,100,0.04,,,1.20,0.000000,,2013-04-11 07:42:00,
2013-04-11 03:12:00,39.0,39.0,-100.00,ESE,106,6.0,9.0,100,0.02,,,1.17,0.000000,,2013-04-11 08:12:00,
2013-04-11 03:22:00,39.0,39.0,-100.00,ESE,106,6.0,9.0,100,0.02,,,1.17,0.000000,,2013-04-11 08:22:00,
2013-04-11 03:32:00,39.0,39.0,-100.00,ESE,106,6.0,9.0,100,0.02,,,1.17,0.000000,,2013-04-11 08:32:00,
2013-04-11 03:42:00,39.0,39.0,-100.00,ESE,106,6.0,9.0,100,0.02,,,1.17,0.000000,,2013-04-11 08:42:00,
2013-04-11 04:02:00,39.0,39.0,-100.00,NE,39,2.0,5.0,100,0.03,,,0.73,0.000000,,2013-04-11 09:02:00,
2013-04-11 04:12:00,39.0,39.0,-100.00,NE,39,2.0,5.0,100,0.03,,,0.73,0.000000,,2013-04-11 09:12:00,
2013-04-11 04:22:00,39.0,39.0,-100.00,NE,39,2.0,5.0,100,0.03,,,0.73,0.000000,,2013-04-11 09:22:00,
2013-04-11 04:33:00,39.0,39.0,-100.00,NE,39,2.0,5.0,100,0.03,,,0.73,0.000000,,2013-04-11 09:33:00,
2013-04-11 04:43:00,39.0,39.0,-100.00,NE,39,2.0,5.0,100,0.03,,,0.73,0.000000,,2013-04-11 09:43:00,
2013-04-11 05:12:00,38.0,38.0,-100.00,NNE,16,6.0,9.0,100,0.02,,,0.54,0.000000,,2013-04-11 10:12:00,
2013-04-11 05:23:00,38.0,38.0,-100.00,NNE,16,6.0,9.0,100,0.02,,,0.54,0.000000,,2013-04-11 10:23:00,
2013-04-11 05:32:00,38.0,38.0,-100.00,NNE,16,6.0,9.0,100,0.02,,,0.54,0.000000,,2013-04-11 10:32:00,
2013-04-11 05:42:00,38.0,38.0,-100.00,NNE,16,6.0,9.0,100,0.02,,,0.54,0.000000,,2013-04-11 10:42:00,
2013-04-11 06:12:00,39.0,39.0,-100.00,ENE,69,5.0,9.0,100,0.00,,,0.53,0.000000,,2013-04-11 11:12:00,
2013-04-11 06:23:00,39.0,39.0,-100.00,ENE,69,5.0,9.0,100,0.00,,,0.53,0.000000,,2013-04-11 11:23:00,
2013-04-11 06:32:00,39.0,39.0,-100.00,ENE,69,5.0,9.0,100,0.00,,,0.53,0.000000,,2013-04-11 11:32:00,
2013-04-11 06:42:00,39.0,39.0,-100.00,ENE,69,5.0,9.0,100,0.00,,,0.53,0.000000,,2013-04-11 11:42:00,
2013-04-11 07:12:00,39.0,39.0,-100.00,East,92,4.0,6.0,100,0.00,,,-99.99,0.000000,,2013-04-11 12:12:00,
2013-04-11 07:22:00,39.0,39.0,-100.00,East,92,4.0,6.0,100,0.00,,,-99.99,0.000000,,2013-04-11 12:22:00,
2013-04-11 07:32:00,39.0,39.0,-100.00,East,92,4.0,6.0,100,0.00,,,-99.99,0.000000,,2013-04-11 12:32:00,
2013-04-11 07:42:00,39.0,39.0,-100.00,East,92,4.0,6.0,100,0.00,,,-99.99,0.000000,,2013-04-11 12:42:00,
2013-04-11 08:12:00,39.0,39.0,-100.00,ESE,115,7.0,9.0,100,0.00,,,-99.99,21.000000,,2013-04-11 13:12:00,
2013-04-11 08:23:00,39.0,39.0,-100.00,ESE,115,7.0,9.0,100,0.00,,,-99.99,21.000000,,2013-04-11 13:23:00,
2013-04-11 08:32:00,39.0,39.0,-100.00,ESE,115,7.0,9.0,100,0.00,,,-99.99,21.000000,,2013-04-11 13:32:00,
2013-04-11 08:43:00,39.0,39.0,-100.00,ESE,115,7.0,9.0,100,0.00,,,-99.99,21.000000,,2013-04-11 13:43:00,
2013-04-11 09:02:00,41.0,41.0,-100.00,South,171,7.0,10.0,100,0.00,,,0.35,103.000000,,2013-04-11 14:02:00,
2013-04-11 09:12:00,41.0,41.0,-100.00,South,171,7.0,10.0,100,0.00,,,0.35,103.000000,,2013-04-11 14:12:00,
2013-04-11 09:22:00,41.0,41.0,-100.00,South,171,7.0,10.0,100,0.00,,,0.35,103.000000,,2013-04-11 14:22:00,
2013-04-11 09:32:00,41.0,41.0,-100.00,South,171,7.0,10.0,100,0.00,,,0.35,103.000000,,2013-04-11 14:32:00,
2013-04-11 09:42:00,41.0,41.0,-100.00,South,171,7.0,10.0,100,0.00,,,0.35,103.000000,,2013-04-11 14:42:00,
2013-04-11 12:13:00,43.0,39.0,-100.00,WSW,239,13.0,18.0,86,-99.99,,,0.33,393.000000,,2013-04-11 17:13:00,
2013-04-11 12:23:00,43.0,39.0,-100.00,WSW,239,13.0,18.0,86,-99.99,,,0.33,393.000000,,2013-04-11 17:23:00,
2013-04-11 12:33:00,43.0,39.0,-100.00,WSW,239,13.0,18.0,86,-99.99,,,0.33,393.000000,,2013-04-11 17:33:00,
2013-04-11 12:43:00,43.0,39.0,-100.00,WSW,239,13.0,18.0,86,-99.99,,,0.33,393.000000,,2013-04-11 17:43:00,
2013-04-11 13:13:00,42.0,38.0,-100.00,WSW,241,18.0,22.0,87,0.00,,,0.29,457.000000,,2013-04-11 18:13:00,
2013-04-11 13:23:00,42.0,38.0,-100.00,WSW,241,18.0,22.0,87,0.00,,,0.29,457.000000,,2013-04-11 18:23:00,
2013-04-11 13:33:00,42.0,38.0,-100.00,WSW,241,18.0,22.0,87,0.00,,,0.29,457.000000,,2013-04-11 18:33:00,
2013-04-11 13:42:00,42.0,38.0,-100.00,WSW,241,18.0,22.0,87,0.00,,,0.29,457.000000,,2013-04-11 18:42:00,
2013-04-11 14:14:00,41.0,37.0,-100.00,WSW,248,15.0,23.0,85,0.00,,,0.22,372.000000,,2013-04-11 19:14:00,
2013-04-11 14:22:00,41.0,37.0,-100.00,WSW,248,15.0,23.0,85,0.00,,,0.22,372.000000,,2013-04-11 19:22:00,
2013-04-11 14:32:00,41.0,37.0,-100.00,WSW,248,15.0,23.0,85,0.00,,,0.22,372.000000,,2013-04-11 19:32:00,
2013-04-11 14:43:00,41.0,37.0,-100.00,WSW,248,15.0,23.0,85,0.00,,,0.22,372.000000,,2013-04-11 19:43:00,
2013-04-11 15:13:00,38.0,36.0,-100.00,WSW,247,19.0,26.0,93,0.01,,,0.21,220.000000,,2013-04-11 20:13:00,
2013-04-11 15:22:00,38.0,36.0,-100.00,WSW,247,19.0,26.0,93,0.01,,,0.21,220.000000,,2013-04-11 20:22:00,
2013-04-11 15:33:00,38.0,36.0,-100.00,WSW,247,19.0,26.0,93,0.01,,,0.21,220.000000,,2013-04-11 20:33:00,
2013-04-11 15:42:00,38.0,36.0,-100.00,WSW,247,19.0,26.0,93,0.01,,,0.21,220.000000,,2013-04-11 20:42:00,
2013-04-11 16:12:00,38.0,35.0,-100.00,WSW,243,16.0,26.0,90,0.01,,,0.22,239.000000,,2013-04-11 21:12:00,
2013-04-11 16:22:00,38.0,35.0,-100.00,WSW,243,16.0,26.0,90,0.01,,,0.22,239.000000,,2013-04-11 21:22:00,
2013-04-11 16:33:00,38.0,35.0,-100.00,WSW,243,16.0,26.0,90,0.01,,,0.22,239.000000,,2013-04-11 21:33:00,
2013-04-11 16:42:00,38.0,35.0,-100.00,WSW,243,16.0,26.0,90,0.01,,,0.22,239.000000,,2013-04-11 21:42:00,
2013-04-11 17:13:00,39.0,33.0,-100.00,WSW,245,17.0,23.0,80,0.00,,,0.22,404.000000,,2013-04-11 22:13:00,
2013-04-11 17:23:00,39.0,33.0,-100.00,WSW,245,17.0,23.0,80,0.00,,,0.22,404.000000,,2013-04-11 22:23:00,
2013-04-11 17:33:00,39.0,33.0,-100.00,WSW,245,17.0,23.0,80,0.00,,,0.22,404.000000,,2013-04-11 22:33:00,
2013-04-11 17:44:00,39.0,33.0,-100.00,WSW,245,17.0,23.0,80,0.00,,,0.22,404.000000,,2013-04-11 22:44:00,
2013-04-11 18:13:00,37.0,32.0,-100.00,WSW,237,14.0,22.0,81,0.00,,,0.22,125.000000,,2013-04-11 23:13:00,
2013-04-11 18:23:00,37.0,32.0,-100.00,WSW,237,14.0,22.0,81,0.00,,,0.22,125.000000,,2013-04-11 23:23:00,
2013-04-11 18:32:00,37.0,32.0,-100.00,WSW,237,14.0,22.0,81,0.00,,,0.22,125.000000,,2013-04-11 23:32:00,
2013-04-11 18:42:00,37.0,32.0,-100.00,WSW,237,14.0,22.0,81,0.00,,,0.22,125.000000,,2013-04-11 23:42:00,
2013-04-11 19:12:00,37.0,33.0,-100.00,WSW,240,12.0,19.0,84,0.00,,,0.22,63.000000,,2013-04-12 00:12:00,
2013-04-11 19:22:00,37.0,33.0,-100.00,WSW,240,12.0,19.0,84,0.00,,,0.22,63.000000,,2013-04-12 00:22:00,
2013-04-11 19:32:00,37.0,33.0,-100.00,WSW,240,12.0,19.0,84,0.00,,,0.22,63.000000,,2013-04-12 00:32:00,
2013-04-11 19:42:00,37.0,33.0,-100.00,WSW,240,12.0,19.0,84,0.00,,,0.22,63.000000,,2013-04-12 00:42:00,
2013-04-11 20:12:00,37.0,32.0,-100.00,SW,232,12.0,20.0,83,0.00,,,0.22,28.000000,,2013-04-12 01:12:00,
2013-04-11 20:22:00,37.0,32.0,-100.00,SW,232,12.0,20.0,83,0.00,,,0.22,28.000000,,2013-04-12 01:22:00,
2013-04-11 20:32:00,37.0,32.0,-100.00,SW,232,12.0,20.0,83,0.00,,,0.22,28.000000,,2013-04-12 01:32:00,
2013-04-11 20:42:00,37.0,32.0,-100.00,SW,232,12.0,20.0,83,0.00,,,0.22,28.000000,,2013-04-12 01:42:00,
2013-04-11 21:12:00,36.0,32.0,-100.00,SW,232,11.0,17.0,85,0.00,,,0.22,0.000000,,2013-04-12 02:12:00,
2013-04-11 21:22:00,36.0,32.0,-100.00,SW,232,11.0,17.0,85,0.00,,,0.22,0.000000,,2013-04-12 02:22:00,
2013-04-11 21:32:00,36.0,32.0,-100.00,SW,232,11.0,17.0,85,0.00,,,0.22,0.000000,,2013-04-12 02:32:00,
2013-04-11 21:42:00,36.0,32.0,-100.00,SW,232,11.0,17.0,85,0.00,,,0.22,0.000000,,2013-04-12 02:42:00,
2013-04-11 22:12:00,36.0,33.0,-100.00,SW,235,13.0,19.0,88,0.00,,,0.22,0.000000,,2013-04-12 03:12:00,
2013-04-11 22:22:00,36.0,33.0,-100.00,SW,235,13.0,19.0,88,0.00,,,0.22,0.000000,,2013-04-12 03:22:00,
2013-04-11 22:33:00,36.0,33.0,-100.00,SW,235,13.0,19.0,88,0.00,,,0.22,0.000000,,2013-04-12 03:33:00,
2013-04-11 22:43:00,36.0,33.0,-100.00,SW,235,13.0,19.0,88,0.00,,,0.22,0.000000,,2013-04-12 03:43:00,
2013-04-11 23:13:00,35.0,34.0,-100.00,SW,216,11.0,19.0,96,0.00,,,0.21,0.000000,,2013-04-12 04:13:00,
2013-04-11 23:23:00,35.0,34.0,-100.00,SW,216,11.0,19.0,96,0.00,,,0.21,0.000000,,2013-04-12 04:23:00,
2013-04-11 23:33:00,35.0,34.0,-100.00,SW,216,11.0,19.0,96,0.00,,,0.21,0.000000,,2013-04-12 04:33:00,
2013-04-11 23:43:00,35.0,34.0,-100.00,SW,216,11.0,19.0,96,0.00,,,0.21,0.000000,,2013-04-12 04:43:00,